This is the latest recevied weather packets stored in our database for station/object KB4MLW-13. If no packets are shown the sender has not sent any weather packets the latest 10 day(s).
| Time | Temp. | Humidity | Pressure | Rain* | Wind** | Luminosity | Snow |
|---|---|---|---|---|---|---|---|
| 1788138418 | 27.78° C | 80% | 1000.3 hPa | 0 mm | - | - | - |
| 1788138358 | 27.78° C | 80% | 1000.3 hPa | 0 mm | - | - | - |
| 1788138269 | 27.78° C | 83% | 1000.2 hPa | 0 mm | - | - | - |
| 1788138179 | 27.78° C | 81% | 1000.2 hPa | 0 mm | - | - | - |
| 1788138089 | 27.78° C | 82% | 1000.4 hPa | 0 mm | - | - | - |
| 1788138028 | 27.78° C | 82% | 1000.1 hPa | 0 mm | - | - | - |
| 1788137938 | 27.78° C | 81% | 1000.3 hPa | 0 mm | - | - | - |
| 1788137878 | 27.78° C | 81% | 1000.3 hPa | 0 mm | - | - | - |
| 1788137818 | 27.78° C | 82% | 1000.2 hPa | 0 mm | - | - | - |
| 1788137758 | 27.78° C | 81% | 1000.2 hPa | 0 mm | - | - | - |
| 1788137698 | 27.78° C | 83% | 1000.2 hPa | 0 mm | - | - | - |
| 1788137608 | 27.78° C | 81% | 1000.2 hPa | 0 mm | - | - | - |
| 1788137548 | 28.33° C | 80% | 1000.1 hPa | 0 mm | - | - | - |
| 1788137459 | 28.33° C | 80% | 1000.1 hPa | 0 mm | - | - | - |
| 1788137398 | 27.78° C | 80% | 1000 hPa | 0 mm | - | - | - |
| 1788137309 | 27.78° C | 80% | 999.8 hPa | 0 mm | - | - | - |
| 1788137248 | 27.78° C | 81% | 1000.1 hPa | 0 mm | - | - | - |
| 1788137188 | 27.78° C | 81% | 1000.1 hPa | 0 mm | - | - | - |
| 1788137128 | 28.33° C | 80% | 1000.1 hPa | 0 mm | - | - | - |
| 1788137068 | 28.33° C | 80% | 1000.1 hPa | 0 mm | - | - | - |
| 1788136978 | 28.33° C | 80% | 1000.2 hPa | 0 mm | - | - | - |
| 1788136918 | 28.33° C | 80% | 1000.4 hPa | 0 mm | - | - | - |
| 1788136858 | 28.33° C | 80% | 1000.1 hPa | 0 mm | - | - | - |
| 1788136798 | 28.33° C | 80% | 1000 hPa | 0 mm | - | - | - |
| 1788136709 | 28.33° C | 78% | 1000 hPa | 0 mm | - | - | - |
* Rain latest hour (hover to see other rain measurements)
** Current wind speed in m/s (hover to see current wind gust speed)